This demonstration page uses our WeatherBlox Daily Observations layout. Learn more.

Left ArrowRight Arrow

34.74481, -87.66753

Hourly Observations for May 19, 2021

Temp ( °F °C ) Dew Point ( °F °C ) Humidity (%) Winds ( mph kmh ) Pressure ( in mb ) Visibility ( mi km ) Precip ( " mm )
12:53 am 00:53 Mostly Cloudy 70 21.1 61 16.1 73 73 E 8 13 30.11 1019 10 16 0.00 0.00
1:53 am 01:53 Cloudy 69 20.6 60 15.6 73 73 E 5 7 30.10 1019 10 16 0.00 0.00
2:53 am 02:53 Cloudy 69 20.6 60 15.6 73 73 E 5 7 30.11 1020 10 16 0.00 0.00
3:53 am 03:53 Cloudy 70 21.1 60 15.6 71 71 E 6 9 30.12 1020 10 16 0.00 0.00
4:53 am 04:53 Mostly Clear 70 21.1 60 15.6 71 71 ESE 7 11 30.13 1020 10 16 0.00 0.00
5:53 am 05:53 Mostly Sunny 69 20.6 59 15 70 70 ESE 10 17 30.14 1021 10 16 0.00 0.00
6:53 am 06:53 Sunny 71 21.7 59 15 66 66 ESE 10 17 30.16 1022 10 16 0.00 0.00
7:53 am 07:53 Sunny 74 23.3 59 15 60 60 ESE 12 19 30.18 1022 10 16 0.00 0.00
8:53 am 08:53 Sunny 74 23.3 57 13.9 56 56 SE 17 28 30.19 1022 10 16 0.00 0.00
9:53 am 09:53 Sunny 77 25 56 13.3 48 48 SE 18 30 30.19 1022 10 16 0.00 0.00
10:53 am 10:53 Sunny 80 26.7 55 12.8 42 42 SSE 18 30 30.19 1022 10 16 0.00 0.00
11:53 am 11:53 Sunny 82 27.8 54 12.2 38 38 SE 17 28 30.17 1022 10 16 0.00 0.00
12:53 pm 12:53 Sunny 83 28.3 55 12.8 38 38 ESE 14 22 30.16 1021 10 16 0.00 0.00
1:53 pm 13:53 Mostly Sunny 84 28.9 57 13.9 40 40 SE 13 20 30.15 1021 10 16 0.00 0.00
2:53 pm 14:53 Mostly Sunny 84 28.9 57 13.9 40 40 SE 16 26 30.13 1020 10 16 0.00 0.00
3:53 pm 15:53 Mostly Cloudy 84 28.9 57 13.9 40 40 ESE 14 22 30.12 1020 10 16 0.00 0.00
4:53 pm 16:53 Mostly Sunny 83 28.3 57 13.9 41 41 ESE 10 17 30.12 1020 10 16 0.00 0.00
5:53 pm 17:53 Sunny 83 28.3 57 13.9 41 41 SE 16 26 30.12 1020 10 16 0.00 0.00
6:53 pm 18:53 Mostly Sunny 81 27.2 57 13.9 44 44 SE 13 20 30.12 1020 10 16 0.00 0.00
7:53 pm 19:53 Clear 78 25.6 57 13.9 48 48 ESE 9 15 30.13 1020 10 16 0.00 0.00
8:53 pm 20:53 Clear 76 24.4 57 13.9 52 52 ESE 8 13 30.14 1021 10 16 0.00 0.00
9:53 pm 21:53 Clear 72 22.2 58 14.4 61 61 E 6 9 30.16 1021 10 16 0.00 0.00
10:53 pm 22:53 Clear 72 22.2 58 14.4 61 61 E 5 7 30.17 1022 10 16 0.00 0.00
11:53 pm 23:53 Clear 71 21.7 58 14.4 63 63 E 7 11 30.18 1022 10 16 0.00 0.00

Powered by AerisWeather